[[{"header":{"parameterUnit":"m.s-1","parameterCategory":2,"la1":30.2991,"la2":30.254,"lo1":-89.0895,"lo2":-89.0444,"dy":0.0017,"dx":0.0017,"nx":28,"ny":28,"refTime":"2024-03-07T09:00:00:Z","depth":"0","parameterNumber":2,"parameterNumberName":"U-component_of_CURRENTS"},"data":[0,0,0,0,0,0,0,0,0,0,0,0,0,0,0,0,0,0,0,0,0,0,0,0,0,0,0,0,0,0,0,0,0,0,0,0,0,0,0,0,0,0,0,0,0,0,0,0,0,0,0,0,0,0,0,0,0,0,0.2473,0.2473,0,0.2496,0.2496,0.2496,0.2488,0.2488,0.2488,0.2488,0.2488,0.2488,0.2488,0,0,0,0,0,0,0,0,0,0,0,0,0,0.2426,0.2427,0.2473,0.2473,0.2474,0.2496,0.2496,0.2496,0.2488,0.2488,0.2488,0.2487,0.2488,0.2488,0.2488,0,0,0,0,0,0,0,0,0,0,0,0,0,0.2445,0.2427,0.2473,0.2475,0.2475,0.2496,0.2496,0.2496,0.2489,0.2488,0.2488,0.2487,0.2488,0.2488,0.2489,0.2499,0,0,0.249,0.249,0,0,0,0,0,0,0,0,0.2444,0.2447,0.2474,0.2474,0.2475,0.2491,0.2479,0.2497,0.2489,0.2481,0.2488,0.2487,0.2489,0.2489,0.2491,0.2499,0.2499,0.249,0.249,0.249,0.249,0,0,0,0,0,0,0,0.2443,0.2446,0.248,0.2474,0.2475,0.2475,0.2477,0.2483,0.2485,0.2482,0.2482,0.2488,0.2488,0.2491,0.2491,0.2499,0.249,0.249,0.249,0.2491,0.2553,0.2555,0,0,0,0,0,0,0.2445,0.2445,0.2479,0.2481,0.2461,0.2477,0.2479,0.2484,0.2485,0.2486,0.2488,0.2488,0.249,0.2491,0.2491,0.2534,0.249,0.2491,0.2491,0.2552,0.2554,0.2555,0,0,0,0,0,0,0.2444,0.2448,0.2478,0.2465,0.2469,0.2478,0.2484,0.2485,0.2491,0.2491,0.249,0.2494,0.249,0.2491,0.2509,0.2532,0.2491,0.2491,0.255,0.2552,0.2554,0.26,0,0,0,0,0,0,0.2442,0.2447,0.245,0.2465,0.247,0.2497,0.2485,0.2486,0.2496,0.2495,0.2496,0.2495,0.249,0.2508,0.2509,0.2532,0.2491,0.2548,0.2551,0.2554,0.2596,0.2603,0.2609,0,0,0,0,0,0.2441,0.2446,0.245,0.2454,0.2474,0.2498,0.2501,0.2504,0.2497,0.2506,0.2509,0.2495,0.2526,0.251,0.251,0.2534,0.2547,0.255,0.2553,0.2594,0.2602,0.2609,0,0,0,0,0,0,0.2419,0.2446,0.2451,0.2462,0.2483,0.2498,0.2505,0.2508,0.2518,0.2516,0.251,0.2511,0.2538,0.2531,0.2514,0.2562,0.2535,0.2539,0.2566,0.2573,0.258,0.259,0.2492,0,0,0,0,0,0.2419,0.2433,0.2459,0.2467,0.248,0.2494,0.2503,0.2509,0.2521,0.2524,0.2527,0.2535,0.2552,0.2558,0.2568,0.2591,0.2608,0.2609,0.2615,0.262,0.2631,0.2677,0.2689,0.2566,0.2566,0.2566,0,0,0.241,0.2429,0.2434,0.2464,0.2479,0.2505,0.2498,0.2518,0.254,0.2524,0.2549,0.2555,0.2564,0.2593,0.2604,0.259,0.2667,0.2624,0.2629,0.2636,0.2682,0.2694,0.2705,0.2568,0.2567,0.2567,0,0,0.2407,0.2422,0.2436,0.2461,0.2494,0.2511,0.252,0.2544,0.2555,0.2582,0.2583,0.2606,0.2621,0.264,0.2649,0.2697,0.2699,0.2699,0.2737,0.2782,0.2793,0.2802,0.2851,0.2864,0.2701,0.2701,0.2701,0,0.2394,0.2418,0.2443,0.247,0.249,0.2516,0.2539,0.2564,0.259,0.2608,0.2596,0.2645,0.2647,0.2697,0.2715,0.2711,0.2739,0.2705,0.2791,0.28,0.2809,0.2856,0.287,0.2703,0.2703,0.2703,0.2703,0,0.2407,0.243,0.2443,0.2489,0.2516,0.254,0.2583,0.2613,0.2629,0.265,0.2698,0.271,0.2742,0.2748,0.2745,0.2814,0.2815,0.2793,0.277,0.2824,0.2871,0.2885,0.2707,0.2706,0.2705,0.2705,0,0,0.2367,0.2437,0.2441,0.247,0.2527,0.2553,0.2604,0.2656,0.2697,0.2724,0.2775,0.2807,0.2818,0.2831,0.2837,0.2874,0.296,0.2864,0.2866,0.2911,0.3074,0.3056,0.3069,0.2956,0.2958,0.296,0.3085,0,0.2366,0.2417,0.2451,0.2503,0.2535,0.2585,0.2634,0.2688,0.273,0.279,0.2822,0.2868,0.285,0.2873,0.2912,0.2952,0.2998,0.2929,0.3016,0.3019,0.2995,0.3084,0.3018,0.3122,0.3098,0.3101,0.3102,0,0.2363,0.2404,0.2445,0.2526,0.2544,0.2581,0.2669,0.272,0.2813,0.2844,0.2901,0.2929,0.3005,0.2971,0.3077,0.3037,0.3065,0.3086,0.3091,0.3067,0.3027,0.3062,0.3148,0.309,0.3123,0.3122,0.312,0,0.2323,0.2398,0.243,0.2456,0.2548,0.2582,0.2641,0.2732,0.2774,0.2888,0.2932,0.3015,0.3068,0.312,0.3171,0.3135,0.3284,0.3233,0.3246,0.3245,0.3202,0.3193,0.3239,0.331,0.331,0.3309,0.3309,0,0.2305,0.2333,0.2419,0.2438,0.2485,0.2572,0.2628,0.2703,0.2804,0.2865,0.296,0.3026,0.3109,0.3196,0.3221,0.3297,0.333,0.3283,0.3286,0.3217,0.3208,0.3164,0.3133,0.3314,0.3313,0.3312,0.3311,0,0.2246,0.2299,0.2339,0.2434,0.246,0.2499,0.2593,0.265,0.2764,0.2854,0.2894,0.3052,0.3179,0.3259,0.3364,0.3366,0.3352,0.3438,0.3357,0.3347,0.3269,0.3244,0.3166,0.3062,0.3472,0.3473,0.3473,0,0.2217,0.2233,0.2306,0.2326,0.2362,0.2428,0.2476,0.2598,0.2669,0.2861,0.2915,0.3077,0.3183,0.3361,0.3417,0.3496,0.3373,0.3454,0.3359,0.3287,0.3262,0.3101,0.3006,0.3331,0.333,0.3329,0.3329,0,0.2158,0.2178,0.2211,0.2251,0.2294,0.2334,0.243,0.2463,0.2632,0.2726,0.2892,0.2997,0.3222,0.3302,0.3424,0.3448,0.3308,0.344,0.3393,0.319,0.2993,0.2887,0.3228,0.3323,0.3323,0.3324,0.3324,0.3324,0.2099,0.2103,0.2144,0.217,0.2212,0.2243,0.2249,0.2368,0.2448,0.2591,0.2772,0.2919,0.3155,0.333,0.3332,0.3343,0.3267,0.3269,0.3259,0.3113,0.2958,0.329,0.3361,0.3362,0.3363,0.3363,0.3364,0,0.2026,0.2042,0.2068,0.2089,0.2092,0.2147,0.2216,0.2221,0.2279,0.2477,0.2605,0.2859,0.2995,0.3155,0.3312,0.3217,0.3017,0.312,0.2892,0.2815,0.3162,0.3102,0.3087,0.3087,0.3087,0.3087,0.3088,0.3088,0.1988,0.198,0.1994,0.1961,0.1977,0.1955,0.1965,0.1994,0.2113,0.2261,0.2429,0.2608,0.2975,0.324,0.3254,0.3154,0.2877,0.2754,0.269,0.298,0.2991,0.3003,0.2939,0.289,0.2889,0.2222,0.2218,0.2214]},{"header":{"parameterUnit":"m.s-1","parameterCategory":2,"la1":30.2991,"la2":30.254,"lo1":-89.0895,"lo2":-89.0444,"dy":0.0017,"dx":0.0017,"nx":28,"ny":28,"refTime":"2024-03-07T09:00:00:Z","depth":"0","parameterNumber":3,"parameterNumberName":"V-component_of_CURRENTS"},"data":[0,0,0,0,0,0,0,0,0,0,0,0,0,0,0,0,0,0,0,0,0,0,0,0,0,0,0,0,0,0,0,0,0,0,0,0,0,0,0,0,0,0,0,0,0,0,0,0,0,0,0,0,0,0,0,0,0,0,-0.0092,-0.0093,0,-0.0163,-0.0164,-0.0165,-0.0211,-0.0211,-0.0211,-0.0211,-0.0329,-0.0332,-0.0335,0,0,0,0,0,0,0,0,0,0,0,0,0,-0.0044,-0.0044,-0.0092,-0.0093,-0.0093,-0.0163,-0.0164,-0.0165,-0.0211,-0.0211,-0.0211,-0.0211,-0.0328,-0.0332,-0.0335,0,0,0,0,0,0,0,0,0,0,0,0,0,-0.0086,-0.0044,-0.0092,-0.0124,-0.0127,-0.0163,-0.0164,-0.0166,-0.0211,-0.0211,-0.0211,-0.0211,-0.0327,-0.0331,-0.0336,-0.0357,0,0,-0.0349,-0.0351,0,0,0,0,0,0,0,0,-0.0083,-0.0087,-0.0118,-0.0122,-0.0126,-0.0178,-0.0191,-0.0232,-0.0211,-0.018,-0.0211,-0.0212,-0.0282,-0.029,-0.0304,-0.0363,-0.0368,-0.035,-0.0352,-0.0354,-0.0356,0,0,0,0,0,0,0,-0.008,-0.0085,-0.0121,-0.0119,-0.0124,-0.0152,-0.0157,-0.0199,-0.023,-0.0183,-0.0186,-0.0192,-0.0285,-0.0299,-0.0307,-0.037,-0.035,-0.0353,-0.0356,-0.0358,-0.0446,-0.0445,0,0,0,0,0,0,-0.0067,-0.0082,-0.0119,-0.0123,-0.0104,-0.0152,-0.0159,-0.0161,-0.0229,-0.0239,-0.0192,-0.0194,-0.0291,-0.0302,-0.0311,-0.0335,-0.0354,-0.0358,-0.0361,-0.0446,-0.0445,-0.0445,0,0,0,0,0,0,-0.0065,-0.0069,-0.0116,-0.0104,-0.0111,-0.0152,-0.0155,-0.0163,-0.0176,-0.0235,-0.0246,-0.0197,-0.0292,-0.0305,-0.0339,-0.034,-0.036,-0.0364,-0.0446,-0.0446,-0.0445,-0.0386,0,0,0,0,0,0,-0.0063,-0.0068,-0.0064,-0.0102,-0.0112,-0.0129,-0.0155,-0.0164,-0.0179,-0.0183,-0.0244,-0.0255,-0.0293,-0.0332,-0.0343,-0.0346,-0.0368,-0.0447,-0.0446,-0.0445,-0.0389,-0.0384,-0.038,0,0,0,0,0,-0.0061,-0.0053,-0.0064,-0.0068,-0.0105,-0.0129,-0.0136,-0.0167,-0.0179,-0.0181,-0.0219,-0.0253,-0.0336,-0.0335,-0.0349,-0.0353,-0.0447,-0.0446,-0.0445,-0.0391,-0.0385,-0.038,0,0,0,0,0,0,-0.0027,-0.0058,-0.007,-0.0071,-0.0095,-0.0136,-0.0139,-0.0161,-0.0193,-0.0195,-0.0251,-0.0264,-0.0295,-0.0329,-0.0326,-0.0375,-0.0397,-0.0399,-0.035,-0.0345,-0.0341,-0.0318,-0.0372,0,0,0,0,0,-0.0017,-0.002,-0.0054,-0.0053,-0.0062,-0.01,-0.0113,-0.0133,-0.0166,-0.018,-0.0221,-0.0264,-0.0303,-0.0326,-0.0364,-0.0392,-0.0417,-0.0403,-0.0398,-0.0394,-0.0384,-0.043,-0.0429,-0.0443,-0.0443,-0.0443,0,0,-0.0004,-0.002,-0.0022,-0.0046,-0.0067,-0.0072,-0.0108,-0.0121,-0.0127,-0.0188,-0.0207,-0.025,-0.0305,-0.0334,-0.0351,-0.0364,-0.0399,-0.0393,-0.039,-0.0381,-0.043,-0.0428,-0.0427,-0.0442,-0.0442,-0.0442,0,0,0.0026,0.0009,0.0017,0.0001,-0.0024,-0.0048,-0.0048,-0.0086,-0.0104,-0.0128,-0.0172,-0.0212,-0.0268,-0.0309,-0.0337,-0.0331,-0.0372,-0.0343,-0.0308,-0.0353,-0.0352,-0.0352,-0.0361,-0.0362,-0.0344,-0.0344,-0.0343,0,0.0045,0.005,0.0017,0.0021,0.0016,-0.0032,-0.0021,-0.0049,-0.0092,-0.0102,-0.0123,-0.0203,-0.0257,-0.0294,-0.0294,-0.0322,-0.034,-0.0324,-0.0347,-0.0347,-0.0348,-0.0358,-0.036,-0.0341,-0.0341,-0.0341,-0.0342,0,0.0079,0.0083,0.0088,0.0078,0.0067,0.0068,0.003,0.0016,-0.0012,-0.0041,-0.0078,-0.0148,-0.0193,-0.0223,-0.026,-0.0291,-0.0297,-0.0334,-0.0358,-0.0343,-0.0354,-0.0358,-0.0336,-0.0337,-0.0338,-0.0339,0,0,0.0127,0.0115,0.0117,0.0129,0.0099,0.0099,0.0088,0.0069,0.0075,0.0014,0.0015,-0.0072,-0.0108,-0.0141,-0.0199,-0.0247,-0.0272,-0.0286,-0.029,-0.029,-0.0342,-0.0338,-0.0341,-0.0315,-0.0316,-0.0316,-0.0341,0,0.0166,0.0192,0.0172,0.02,0.0213,0.0174,0.0175,0.015,0.0119,0.0105,0.0023,-0.0003,-0.0078,-0.0095,-0.0156,-0.024,-0.0281,-0.026,-0.0361,-0.0364,-0.0359,-0.0346,-0.0327,-0.0347,-0.0344,-0.0344,-0.0345,0,0.0209,0.0221,0.0257,0.0272,0.0276,0.0283,0.0287,0.0284,0.0242,0.0214,0.0164,0.011,0.0037,-0.003,-0.0164,-0.0145,-0.0233,-0.0305,-0.0309,-0.0328,-0.0366,-0.0367,-0.0353,-0.0523,-0.035,-0.035,-0.0349,0,0.0267,0.0285,0.032,0.0322,0.0326,0.034,0.0343,0.032,0.0339,0.0289,0.0295,0.0194,0.0166,0.0028,-0.0114,-0.014,-0.025,-0.031,-0.0385,-0.0385,-0.0399,-0.0399,-0.0559,-0.0404,-0.0403,-0.0403,-0.0403,0,0.0318,0.0348,0.0351,0.0372,0.0423,0.0407,0.0453,0.0436,0.0438,0.0476,0.0364,0.0378,0.0178,0.0096,-0.0065,-0.0214,-0.0214,-0.0366,-0.0395,-0.0375,-0.0373,-0.0547,-0.0657,-0.0404,-0.0404,-0.0404,-0.0404,0,0.0374,0.0374,0.0421,0.044,0.0453,0.0491,0.0533,0.0571,0.0553,0.0601,0.0597,0.0527,0.0417,0.0227,0.0028,-0.0125,-0.0387,-0.0344,-0.0286,-0.0308,-0.0553,-0.0659,-0.0846,-0.0926,-0.0437,-0.0437,-0.0437,0,0.0403,0.0433,0.0476,0.0513,0.0525,0.0573,0.0616,0.0623,0.0677,0.0703,0.0749,0.0675,0.064,0.0363,0.0078,-0.0183,-0.0372,-0.034,-0.0408,-0.0553,-0.0694,-0.0776,-0.0836,-0.0395,-0.0395,-0.0395,-0.0395,0,0.0463,0.0477,0.0513,0.0589,0.0644,0.0707,0.0775,0.0839,0.087,0.0919,0.0992,0.0977,0.0722,0.0485,0.0127,-0.0076,-0.0468,-0.0344,-0.0527,-0.0697,-0.0765,-0.0858,-0.037,-0.0393,-0.0393,-0.0393,-0.0393,-0.0393,0.0508,0.0545,0.0597,0.067,0.074,0.0843,0.0913,0.1004,0.1116,0.1217,0.1193,0.1206,0.0846,0.0364,0.0071,-0.0441,-0.0473,-0.0602,-0.072,-0.0789,-0.0875,-0.036,-0.0401,-0.0402,-0.0402,-0.0402,-0.0402,0,0.0563,0.0606,0.0677,0.0768,0.0856,0.0883,0.1024,0.1111,0.1261,0.1367,0.1427,0.1284,0.0817,0.0333,-0.0352,-0.0734,-0.0897,-0.0953,-0.1084,-0.113,-0.0694,-0.07,-0.0769,-0.0769,-0.0768,-0.0768,-0.0768,-0.0768,0.0598,0.067,0.0703,0.0848,0.092,0.1056,0.1145,0.1289,0.1403,0.1543,0.1588,0.1586,0.1249,-0.0029,-0.092,-0.114,-0.141,-0.147,-0.1619,-0.1344,-0.132,-0.1298,-0.133,-0.153,-0.1531,-0.1991,-0.1996,-0.2]}],[{"header":{"parameterUnit":"m.s-1","parameterCategory":2,"la1":30.2991,"la2":30.254,"lo1":-89.0895,"lo2":-89.0444,"dy":0.0017,"dx":0.0017,"nx":28,"ny":28,"refTime":"2024-03-07T09:00:00:Z","depth":"2","parameterNumber":2,"parameterNumberName":"U-component_of_CURRENTS"},"data":[0,0,0,0,0,0,0,0,0,0,0,0,0,0,0,0,0,0,0,0,0,0,0,0,0,0,0,0,0,0,0,0,0,0,0,0,0,0,0,0,0,0,0,0,0,0,0,0,0,0,0,0,0,0,0,0,0,0,0.2321,0.2322,0,0.2351,0.2351,0.2351,0.2357,0.2357,0.2357,0.2358,0.2375,0.2376,0.2376,0,0,0,0,0,0,0,0,0,0,0,0,0,0.226,0.2261,0.2321,0.2322,0.2322,0.2351,0.2351,0.2351,0.2357,0.2357,0.2358,0.2358,0.2375,0.2376,0.2376,0,0,0,0,0,0,0,0,0,0,0,0,0,0.2285,0.2262,0.2321,0.2331,0.2332,0.2351,0.2351,0.2351,0.2357,0.2357,0.2358,0.2358,0.2375,0.2376,0.2376,0.2379,0,0,0.2378,0.2379,0,0,0,0,0,0,0,0,0.2284,0.2287,0.2329,0.233,0.2332,0.2353,0.2336,0.2361,0.2357,0.2345,0.2358,0.2358,0.2369,0.237,0.2371,0.238,0.238,0.2378,0.2379,0.2379,0.2379,0,0,0,0,0,0,0,0.2282,0.2286,0.233,0.233,0.2332,0.2331,0.2334,0.234,0.2353,0.2346,0.2347,0.2355,0.2369,0.2371,0.2372,0.2381,0.2378,0.2379,0.2379,0.2379,0.2445,0.2447,0,0,0,0,0,0,0.2285,0.2284,0.2329,0.2331,0.2311,0.2332,0.2336,0.2344,0.2354,0.2356,0.2355,0.2355,0.2369,0.2371,0.2372,0.2423,0.2379,0.238,0.238,0.2444,0.2446,0.2447,0,0,0,0,0,0,0.2283,0.2289,0.2328,0.231,0.2316,0.2334,0.2342,0.2344,0.2357,0.2361,0.2363,0.2367,0.237,0.2371,0.2394,0.2422,0.238,0.238,0.2443,0.2445,0.2447,0.2495,0,0,0,0,0,0,0.2282,0.2288,0.2297,0.2311,0.2317,0.2349,0.2342,0.2345,0.2363,0.2364,0.2372,0.2373,0.237,0.2393,0.2394,0.2422,0.2381,0.2441,0.2443,0.2446,0.2491,0.2498,0.2504,0,0,0,0,0,0.2279,0.229,0.2297,0.2302,0.2328,0.235,0.2353,0.2364,0.2363,0.2374,0.2382,0.2373,0.241,0.2394,0.2396,0.2425,0.244,0.2443,0.2446,0.2489,0.2497,0.2504,0,0,0,0,0,0,0.2265,0.2292,0.23,0.2318,0.2339,0.2353,0.2365,0.2371,0.2385,0.2389,0.2386,0.2389,0.242,0.2416,0.2398,0.2452,0.2425,0.2429,0.2458,0.2465,0.2472,0.2492,0.2381,0,0,0,0,0,0.2268,0.2285,0.2309,0.2324,0.2337,0.2353,0.2364,0.2374,0.2388,0.2395,0.2403,0.2416,0.2432,0.2443,0.2453,0.248,0.2493,0.2502,0.2508,0.2513,0.2532,0.2573,0.2585,0.2457,0.2457,0.2457,0,0,0.2265,0.2284,0.2293,0.2323,0.2339,0.2362,0.236,0.2384,0.2406,0.2395,0.2427,0.2436,0.2443,0.2476,0.249,0.2478,0.2557,0.2517,0.2522,0.2538,0.2578,0.259,0.2601,0.2459,0.2459,0.2459,0,0,0.2269,0.2289,0.2305,0.2327,0.2361,0.2375,0.2386,0.2412,0.2429,0.2457,0.2461,0.2491,0.2506,0.2528,0.2537,0.2585,0.2587,0.2588,0.264,0.2679,0.269,0.27,0.2732,0.2744,0.2594,0.2594,0.2594,0,0.2266,0.2291,0.2313,0.2337,0.2358,0.2383,0.2406,0.2429,0.246,0.2483,0.2475,0.253,0.2534,0.2586,0.261,0.2601,0.2622,0.2607,0.2688,0.2697,0.2707,0.2737,0.275,0.2597,0.2596,0.2596,0.2596,0,0.2281,0.2306,0.232,0.236,0.2386,0.2411,0.2449,0.2482,0.2503,0.2525,0.2581,0.2597,0.2633,0.2642,0.2642,0.2717,0.271,0.2688,0.2668,0.2723,0.2751,0.2764,0.26,0.2599,0.2599,0.2598,0,0,0.2257,0.2318,0.2323,0.2349,0.2401,0.2424,0.2474,0.2526,0.2566,0.2602,0.2656,0.2697,0.2717,0.2731,0.2741,0.2784,0.2865,0.2775,0.2776,0.2807,0.2959,0.2929,0.2939,0.2859,0.2862,0.2864,0.2952,0,0.2262,0.2308,0.2338,0.2386,0.2414,0.2461,0.2504,0.2558,0.2602,0.2663,0.2704,0.2755,0.2747,0.2777,0.2821,0.2858,0.2902,0.2844,0.2902,0.2904,0.287,0.2954,0.2738,0.2797,0.2965,0.2967,0.2968,0,0.2262,0.2299,0.2339,0.2411,0.2427,0.2461,0.2544,0.2593,0.2682,0.2718,0.2784,0.2815,0.2901,0.2875,0.2976,0.2943,0.2965,0.2984,0.2987,0.2955,0.2898,0.277,0.2814,0.2989,0.2987,0.2986,0.2984,0,0.2231,0.2299,0.2332,0.2354,0.2434,0.247,0.2525,0.261,0.2655,0.277,0.2815,0.2901,0.2959,0.3008,0.3057,0.3028,0.3158,0.311,0.3101,0.3098,0.2925,0.2903,0.3181,0.3181,0.3181,0.3181,0.3181,0,0.2218,0.2247,0.2324,0.2342,0.2389,0.2465,0.2524,0.2594,0.2693,0.2756,0.2848,0.291,0.3,0.3074,0.3097,0.3155,0.319,0.3141,0.3133,0.2936,0.2915,0.3082,0.3069,0.3184,0.3184,0.3183,0.3182,0,0.2169,0.2218,0.2258,0.2344,0.2369,0.241,0.2505,0.2557,0.2668,0.2759,0.2802,0.294,0.3053,0.3125,0.3218,0.3207,0.3256,0.3257,0.3025,0.2989,0.3157,0.3146,0.3265,0.3265,0.3265,0.3265,0.3265,0,0.2146,0.2162,0.2235,0.2256,0.2292,0.2359,0.2404,0.2522,0.2586,0.2764,0.2811,0.296,0.3045,0.3185,0.3215,0.3271,0.3283,0.3075,0.2982,0.3194,0.3173,0.3162,0.3151,0.2766,0.2761,0.2758,0.2755,0,0.2097,0.2119,0.2151,0.2194,0.2238,0.2279,0.2369,0.2398,0.2555,0.2643,0.2775,0.2862,0.3036,0.3013,0.3105,0.3092,0.3052,0.301,0.3302,0.2784,0.2732,0.2708,0.2712,0.2726,0.2729,0.2731,0.2732,0.2734,0.2049,0.2054,0.2095,0.2124,0.2168,0.2194,0.2201,0.2301,0.2373,0.2487,0.2639,0.2711,0.2806,0.2848,0.2796,0.2768,0.2966,0.2822,0.2828,0.2839,0.2772,0.2723,0.2702,0.2705,0.2707,0.271,0.2711,0,0.1984,0.2001,0.2028,0.2052,0.2054,0.2113,0.2168,0.2159,0.2199,0.2346,0.2438,0.2328,0.236,0.2439,0.2382,0.2419,0.235,0.2297,0.2177,0.2213,0.2243,0.2139,0.1905,0.1901,0.1898,0.1895,0,0,0.1951,0.1943,0.1954,0.1926,0.1947,0.1926,0.193,0.1933,0.2008,0.2017,0.2058,0.2261,0.2403,0.2112,0.2108,0.1993,0.2069,0.1918,0.2582,0.248,0.2504,0.2585,0.2471,0,0,0,0,0]},{"header":{"parameterUnit":"m.s-1","parameterCategory":2,"la1":30.2991,"la2":30.254,"lo1":-89.0895,"lo2":-89.0444,"dy":0.0017,"dx":0.0017,"nx":28,"ny":28,"refTime":"2024-03-07T09:00:00:Z","depth":"2","parameterNumber":3,"parameterNumberName":"V-component_of_CURRENTS"},"data":[0,0,0,0,0,0,0,0,0,0,0,0,0,0,0,0,0,0,0,0,0,0,0,0,0,0,0,0,0,0,0,0,0,0,0,0,0,0,0,0,0,0,0,0,0,0,0,0,0,0,0,0,0,0,0,0,0,0,-0.0108,-0.0109,0,-0.0173,-0.0174,-0.0175,-0.0219,-0.0219,-0.0219,-0.0219,-0.0323,-0.0326,-0.0328,0,0,0,0,0,0,0,0,0,0,0,0,0,-0.0062,-0.0062,-0.0108,-0.0109,-0.0109,-0.0173,-0.0174,-0.0175,-0.0219,-0.0219,-0.0219,-0.0219,-0.0323,-0.0326,-0.0329,0,0,0,0,0,0,0,0,0,0,0,0,0,-0.0101,-0.0063,-0.0108,-0.0138,-0.0142,-0.0173,-0.0174,-0.0176,-0.0219,-0.0219,-0.0219,-0.022,-0.0322,-0.0325,-0.0329,-0.0345,0,0,-0.0341,-0.0342,0,0,0,0,0,0,0,0,-0.0098,-0.0102,-0.0133,-0.0136,-0.014,-0.0188,-0.0196,-0.0234,-0.0218,-0.019,-0.0219,-0.022,-0.0281,-0.0288,-0.03,-0.035,-0.0355,-0.0341,-0.0343,-0.0345,-0.0346,0,0,0,0,0,0,0,-0.0096,-0.01,-0.0134,-0.0134,-0.0138,-0.0163,-0.0169,-0.0204,-0.0234,-0.0192,-0.0196,-0.0202,-0.0283,-0.0296,-0.0303,-0.0356,-0.0341,-0.0344,-0.0347,-0.0348,-0.0417,-0.0417,0,0,0,0,0,0,-0.0084,-0.0097,-0.0132,-0.0136,-0.0119,-0.0163,-0.017,-0.0173,-0.0233,-0.0242,-0.0202,-0.0204,-0.0289,-0.0298,-0.0307,-0.032,-0.0345,-0.0349,-0.0351,-0.0418,-0.0417,-0.0417,0,0,0,0,0,0,-0.0082,-0.0086,-0.013,-0.0118,-0.0125,-0.0163,-0.0167,-0.0174,-0.0186,-0.0239,-0.0249,-0.0207,-0.029,-0.0301,-0.0329,-0.0325,-0.035,-0.0354,-0.0418,-0.0417,-0.0417,-0.0354,0,0,0,0,0,0,-0.0081,-0.0085,-0.0082,-0.0117,-0.0125,-0.0142,-0.0166,-0.0175,-0.0189,-0.0193,-0.0247,-0.0257,-0.0291,-0.0323,-0.0333,-0.0331,-0.0357,-0.0419,-0.0418,-0.0417,-0.0357,-0.0351,-0.0347,0,0,0,0,0,-0.0079,-0.0071,-0.0082,-0.0086,-0.012,-0.0141,-0.0148,-0.0177,-0.0189,-0.019,-0.0223,-0.0255,-0.0325,-0.0326,-0.0337,-0.0336,-0.0419,-0.0418,-0.0417,-0.0359,-0.0352,-0.0347,0,0,0,0,0,0,-0.0048,-0.0076,-0.0088,-0.0089,-0.011,-0.0148,-0.0151,-0.0172,-0.0199,-0.0202,-0.0251,-0.0263,-0.0286,-0.0318,-0.0318,-0.0353,-0.0377,-0.0378,-0.0328,-0.0323,-0.0318,-0.0302,-0.036,0,0,0,0,0,-0.0039,-0.0041,-0.0072,-0.0072,-0.008,-0.0114,-0.0126,-0.0145,-0.0174,-0.0187,-0.0224,-0.0261,-0.0291,-0.0311,-0.0343,-0.0364,-0.0392,-0.037,-0.0365,-0.036,-0.0355,-0.0395,-0.0393,-0.0413,-0.0413,-0.0413,0,0,-0.0027,-0.0042,-0.0044,-0.0065,-0.0084,-0.0087,-0.0122,-0.0134,-0.0137,-0.0194,-0.0208,-0.0245,-0.0292,-0.0312,-0.0326,-0.0339,-0.0366,-0.0359,-0.0355,-0.0352,-0.0394,-0.0392,-0.039,-0.0412,-0.0413,-0.0413,0,0,0.0,-0.0015,-0.0007,-0.0021,-0.0043,-0.0064,-0.0064,-0.0099,-0.0114,-0.0133,-0.0171,-0.0203,-0.0252,-0.0283,-0.0306,-0.0293,-0.0337,-0.0303,-0.027,-0.0308,-0.0307,-0.0306,-0.0325,-0.0327,-0.0303,-0.0303,-0.0303,0,0.0017,0.0022,-0.0007,-0.0002,-0.0005,-0.0049,-0.0037,-0.0059,-0.0098,-0.0105,-0.0128,-0.0192,-0.0238,-0.0261,-0.0259,-0.0282,-0.0304,-0.0288,-0.0302,-0.0302,-0.0302,-0.0322,-0.0324,-0.03,-0.03,-0.03,-0.0301,0,0.0049,0.0053,0.0059,0.0053,0.0046,0.0047,0.0018,0.0007,-0.0019,-0.0044,-0.0072,-0.0132,-0.017,-0.0192,-0.0226,-0.0246,-0.026,-0.0289,-0.0315,-0.0296,-0.0318,-0.0322,-0.0295,-0.0296,-0.0297,-0.0298,0,0,0.0089,0.0083,0.0085,0.0098,0.0076,0.0078,0.0076,0.0062,0.0069,0.0017,0.0018,-0.005,-0.0085,-0.0113,-0.0162,-0.0203,-0.0228,-0.0243,-0.0247,-0.0257,-0.0298,-0.0305,-0.031,-0.0261,-0.0261,-0.0262,-0.0307,0,0.0124,0.0151,0.0137,0.0168,0.0181,0.0151,0.0157,0.014,0.0114,0.0102,0.0033,0.0012,-0.0054,-0.0069,-0.0121,-0.0199,-0.0237,-0.0212,-0.0318,-0.0321,-0.0327,-0.0314,-0.0286,-0.0324,-0.0311,-0.0312,-0.0312,0,0.0163,0.0177,0.0213,0.0233,0.0238,0.0249,0.0259,0.0259,0.0225,0.0201,0.0159,0.0111,0.0049,-0.0011,-0.0134,-0.0114,-0.0198,-0.0265,-0.0269,-0.0301,-0.0335,-0.0345,-0.0331,-0.0319,-0.0318,-0.0318,-0.0317,0,0.0213,0.0234,0.0268,0.0273,0.0284,0.03,0.0305,0.029,0.0308,0.0267,0.0272,0.0186,0.0155,0.0033,-0.0102,-0.0119,-0.0235,-0.0277,-0.0359,-0.036,-0.0369,-0.037,-0.0364,-0.0364,-0.0364,-0.0364,-0.0364,0,0.0258,0.0288,0.0295,0.0316,0.0365,0.0355,0.0399,0.0388,0.0391,0.0428,0.033,0.0338,0.0164,0.0081,-0.0065,-0.0212,-0.0207,-0.0347,-0.0374,-0.0345,-0.0343,-0.0371,-0.0371,-0.0365,-0.0365,-0.0365,-0.0364,0,0.0306,0.0309,0.0354,0.0377,0.0391,0.0426,0.0468,0.0503,0.0488,0.0534,0.0531,0.0459,0.0348,0.0177,-0.0008,-0.0144,-0.0298,-0.0353,-0.0295,-0.0315,-0.0407,-0.0403,-0.045,-0.0451,-0.0452,-0.0452,-0.0452,0,0.0332,0.0359,0.0404,0.0439,0.0452,0.0497,0.0537,0.0547,0.0594,0.0617,0.0654,0.0574,0.0531,0.0257,0.0004,-0.0236,-0.0279,-0.0369,-0.0409,-0.0394,-0.0417,-0.0412,-0.0408,-0.0391,-0.0391,-0.0391,-0.0391,0,0.0382,0.0396,0.0431,0.0502,0.0554,0.0614,0.0675,0.0729,0.0761,0.0802,0.0851,0.0825,0.0579,0.0346,0.0016,-0.0154,-0.0333,-0.0375,-0.0377,-0.0372,-0.0343,-0.0363,-0.036,-0.039,-0.039,-0.039,-0.039,-0.039,0.042,0.0453,0.0502,0.057,0.0637,0.0727,0.0785,0.0863,0.0953,0.1032,0.1006,0.0972,0.0707,0.0291,-0.0005,-0.0321,-0.0317,-0.0429,-0.0428,-0.0427,-0.0411,-0.0384,-0.0435,-0.0435,-0.0435,-0.0436,-0.0436,0,0.0464,0.0503,0.0568,0.065,0.073,0.0762,0.0879,0.0938,0.1053,0.1136,0.1173,0.0934,0.0673,0.0358,-0.0104,-0.0381,-0.0413,-0.0469,-0.0443,-0.0441,-0.0441,-0.0425,-0.0453,-0.0454,-0.0454,-0.0455,0,0,0.0491,0.0553,0.0582,0.071,0.0778,0.0892,0.0963,0.1058,0.1136,0.1204,0.1208,0.117,0.0791,0.0461,0.0081,-0.0183,-0.0253,-0.0242,-0.0197,-0.012,-0.0116,-0.0385,-0.0355,0,0,0,0,0]}],[{"header":{"parameterUnit":"m.s-1","parameterCategory":2,"la1":30.2991,"la2":30.254,"lo1":-89.0895,"lo2":-89.0444,"dy":0.0017,"dx":0.0017,"nx":28,"ny":28,"refTime":"2024-03-07T09:00:00:Z","depth":"4","parameterNumber":2,"parameterNumberName":"U-component_of_CURRENTS"},"data":[0,0,0,0,0,0,0,0,0,0,0,0,0,0,0,0,0,0,0,0,0,0,0,0,0,0,0,0,0,0,0,0,0,0,0,0,0,0,0,0,0,0,0,0,0,0,0,0,0,0,0,0,0,0,0,0,0,0,0.1511,0.1511,0,0.1575,0.1576,0.1576,0.1629,0.1629,0.163,0.1631,0.1701,0.1702,0.1703,0,0,0,0,0,0,0,0,0,0,0,0,0,0.1418,0.1419,0.151,0.1511,0.1512,0.1575,0.1576,0.1576,0.1629,0.163,0.163,0.1631,0.1701,0.1702,0.1703,0,0,0,0,0,0,0,0,0,0,0,0,0,0.1466,0.142,0.151,0.1547,0.1552,0.1575,0.1576,0.1577,0.1628,0.163,0.1631,0.1632,0.17,0.1702,0.1704,0.1693,0,0,0.1709,0.171,0,0,0,0,0,0,0,0,0.1463,0.1469,0.1541,0.1545,0.155,0.1597,0.1569,0.1616,0.1628,0.1597,0.1631,0.1632,0.1667,0.1672,0.1678,0.1696,0.1699,0.1709,0.171,0.1711,0.1712,0,0,0,0,0,0,0,0.146,0.1467,0.1534,0.1542,0.1547,0.1556,0.1564,0.1578,0.1624,0.16,0.1604,0.1614,0.1669,0.1677,0.1681,0.17,0.1709,0.1711,0.1712,0.1713,0.1814,0.1816,0,0,0,0,0,0,0.1456,0.1464,0.1532,0.1536,0.151,0.1557,0.1566,0.1579,0.1624,0.1632,0.1613,0.1617,0.1673,0.1678,0.1683,0.1761,0.1711,0.1713,0.1714,0.1813,0.1815,0.1817,0,0,0,0,0,0,0.1453,0.1461,0.1529,0.1503,0.1512,0.1558,0.1572,0.158,0.1621,0.1634,0.1643,0.1651,0.1674,0.1681,0.1727,0.1761,0.1714,0.1715,0.1811,0.1813,0.1816,0.1861,0,0,0,0,0,0,0.145,0.146,0.1483,0.1502,0.1514,0.1565,0.1571,0.158,0.1624,0.163,0.1668,0.1674,0.1675,0.1725,0.1729,0.1763,0.1717,0.1809,0.1812,0.1815,0.1857,0.1864,0.187,0,0,0,0,0,0.1447,0.1468,0.1483,0.1493,0.1539,0.1566,0.1573,0.1607,0.1625,0.1647,0.1677,0.1675,0.1747,0.1727,0.1732,0.1767,0.1807,0.1811,0.1815,0.1854,0.1863,0.187,0,0,0,0,0,0,0.1442,0.1476,0.1493,0.1526,0.1555,0.1576,0.1606,0.1624,0.1664,0.1682,0.1691,0.1699,0.1753,0.1754,0.1732,0.1807,0.1779,0.1783,0.1807,0.1815,0.1822,0.1825,0.1718,0,0,0,0,0,0.145,0.1478,0.1506,0.1537,0.1555,0.1586,0.1608,0.1631,0.1661,0.1682,0.1708,0.1738,0.1765,0.1787,0.1808,0.1846,0.1852,0.1874,0.1881,0.1886,0.1893,0.1926,0.1936,0.1829,0.1829,0.1829,0,0,0.1457,0.1481,0.1499,0.1539,0.1567,0.1595,0.1603,0.1647,0.1677,0.1682,0.1742,0.1764,0.1781,0.1826,0.1851,0.1837,0.1923,0.1891,0.1895,0.1899,0.1931,0.1941,0.195,0.1831,0.1831,0.183,0,0,0.1471,0.1509,0.1533,0.156,0.1608,0.1625,0.1645,0.1685,0.1716,0.1765,0.178,0.1824,0.1866,0.1885,0.1897,0.1954,0.1957,0.1969,0.2007,0.204,0.2048,0.2056,0.2087,0.2098,0.1974,0.1974,0.1974,0,0.1481,0.1514,0.1545,0.1574,0.1601,0.1642,0.1671,0.1704,0.1756,0.1785,0.1795,0.1875,0.189,0.1941,0.1966,0.1969,0.199,0.1972,0.2047,0.2055,0.2062,0.2092,0.2103,0.1976,0.1976,0.1976,0.1976,0,0.1502,0.1542,0.1561,0.161,0.1642,0.1678,0.172,0.1766,0.1808,0.1838,0.1911,0.1938,0.1986,0.2,0.2003,0.2068,0.2068,0.205,0.2023,0.2076,0.2104,0.2115,0.198,0.1979,0.1978,0.1978,0,0,0.1486,0.1561,0.1571,0.1602,0.1667,0.1692,0.175,0.1807,0.1854,0.1913,0.1972,0.2025,0.2055,0.2072,0.2087,0.2118,0.2189,0.2115,0.2116,0.214,0.2272,0.2152,0.2152,0.2189,0.2191,0.2192,0.2275,0,0.1497,0.1552,0.1587,0.1646,0.1677,0.1733,0.1781,0.1842,0.1897,0.1966,0.2015,0.2079,0.2077,0.2117,0.2149,0.2182,0.2218,0.2169,0.2223,0.2225,0.2106,0.216,0.2198,0.2282,0.2285,0.2286,0.2287,0,0.1498,0.1539,0.1593,0.167,0.169,0.1734,0.1823,0.1871,0.1967,0.2016,0.2089,0.2132,0.2208,0.2191,0.2276,0.2251,0.2273,0.2287,0.229,0.2167,0.2123,0.2218,0.2306,0.2304,0.2303,0.2302,0.2301,0,0.146,0.1541,0.1586,0.1613,0.1703,0.1748,0.1804,0.1894,0.1944,0.206,0.2116,0.22,0.2265,0.2302,0.2351,0.2326,0.2433,0.2392,0.2304,0.2296,0.2359,0.2349,0.2448,0.2448,0.2448,0.2447,0.2447,0,0.144,0.1482,0.1581,0.1605,0.1669,0.1741,0.1815,0.1885,0.1988,0.2052,0.2147,0.2206,0.23,0.237,0.2385,0.2384,0.2465,0.2322,0.231,0.2377,0.2369,0.2366,0.2356,0.2451,0.245,0.2449,0.2449,0,0.1383,0.1449,0.1507,0.1614,0.1651,0.1699,0.1814,0.1863,0.1977,0.2067,0.2114,0.2245,0.2333,0.2408,0.2484,0.2422,0.2432,0.2412,0.2505,0.2496,0.2264,0.2255,0.2303,0.23,0.2297,0.2294,0.2292,0,0.1355,0.1382,0.1498,0.1536,0.1589,0.1671,0.1724,0.1845,0.1896,0.2067,0.2101,0.2243,0.2316,0.2327,0.241,0.2439,0.2411,0.2398,0.23,0.2266,0.2251,0.2246,0.2242,0.2287,0.2286,0.2286,0.2285,0,0.1298,0.1352,0.14,0.1478,0.1543,0.1598,0.1689,0.1711,0.1851,0.1978,0.204,0.2091,0.2194,0.2246,0.2303,0.231,0.2388,0.2366,0.237,0.2278,0.2247,0.2234,0.2233,0.2275,0.2276,0.2277,0.2278,0,0.1257,0.1275,0.1347,0.1401,0.1477,0.1502,0.1557,0.1621,0.1684,0.187,0.1889,0.2038,0.217,0.2182,0.2227,0.2238,0.219,0.2099,0.2117,0.2129,0.2034,0.1967,0.1908,0,0,0,0,0,0.1207,0.1217,0.1265,0.1313,0.1382,0.1427,0.1524,0.1582,0.1717,0.1717,0.1796,0.1879,0.1948,0.2022,0.1999,0.2156,0.2203,0.2119,0.2107,0.2217,0.2229,0.2133,0,0,0,0,0,0,0.1172,0.1215,0.123,0.1225,0.1244,0.1304,0.1359,0.1452,0.1454,0.1603,0.165,0.1771,0.1867,0.1949,0.1966,0.1991,0.1945,0.2217,0.2212,0.221,0.2221,0.2231,0.2136,0,0,0,0,0]},{"header":{"parameterUnit":"m.s-1","parameterCategory":2,"la1":30.2991,"la2":30.254,"lo1":-89.0895,"lo2":-89.0444,"dy":0.0017,"dx":0.0017,"nx":28,"ny":28,"refTime":"2024-03-07T09:00:00:Z","depth":"4","parameterNumber":3,"parameterNumberName":"V-component_of_CURRENTS"},"data":[0,0,0,0,0,0,0,0,0,0,0,0,0,0,0,0,0,0,0,0,0,0,0,0,0,0,0,0,0,0,0,0,0,0,0,0,0,0,0,0,0,0,0,0,0,0,0,0,0,0,0,0,0,0,0,0,0,0,-0.0032,-0.0033,0,-0.0081,-0.0081,-0.0082,-0.0116,-0.0116,-0.0117,-0.0117,-0.0191,-0.0193,-0.0195,0,0,0,0,0,0,0,0,0,0,0,0,0,0.0001,0.0,-0.0032,-0.0033,-0.0033,-0.008,-0.0081,-0.0082,-0.0116,-0.0116,-0.0117,-0.0117,-0.0191,-0.0193,-0.0195,0,0,0,0,0,0,0,0,0,0,0,0,0,-0.0027,0.0,-0.0032,-0.0056,-0.0058,-0.008,-0.0081,-0.0082,-0.0116,-0.0116,-0.0117,-0.0117,-0.019,-0.0192,-0.0195,-0.0204,0,0,-0.0203,-0.0204,0,0,0,0,0,0,0,0,-0.0026,-0.0029,-0.0052,-0.0054,-0.0057,-0.0092,-0.0097,-0.0124,-0.0116,-0.0095,-0.0117,-0.0117,-0.016,-0.0165,-0.0174,-0.0208,-0.0211,-0.0203,-0.0205,-0.0206,-0.0207,0,0,0,0,0,0,0,-0.0024,-0.0027,-0.0052,-0.0052,-0.0056,-0.0074,-0.0078,-0.0102,-0.0125,-0.0096,-0.0099,-0.0103,-0.0162,-0.0171,-0.0176,-0.0212,-0.0203,-0.0206,-0.0207,-0.0208,-0.0255,-0.0255,0,0,0,0,0,0,-0.0015,-0.0025,-0.005,-0.0053,-0.0042,-0.0074,-0.0079,-0.0081,-0.0125,-0.0131,-0.0103,-0.0105,-0.0166,-0.0173,-0.0178,-0.0181,-0.0206,-0.0209,-0.021,-0.0256,-0.0255,-0.0255,0,0,0,0,0,0,-0.0014,-0.0017,-0.0048,-0.004,-0.0045,-0.0074,-0.0076,-0.0082,-0.0093,-0.0129,-0.0137,-0.0108,-0.0167,-0.0175,-0.0194,-0.0185,-0.021,-0.0212,-0.0256,-0.0255,-0.0255,-0.0193,0,0,0,0,0,0,-0.0013,-0.0016,-0.0014,-0.0039,-0.0045,-0.0057,-0.0076,-0.0082,-0.0094,-0.0097,-0.0136,-0.0144,-0.0168,-0.019,-0.0197,-0.0189,-0.0214,-0.0256,-0.0256,-0.0255,-0.0196,-0.0191,-0.0186,0,0,0,0,0,-0.0011,-0.0006,-0.0014,-0.0017,-0.0042,-0.0056,-0.0061,-0.0083,-0.0094,-0.0095,-0.0119,-0.0142,-0.0191,-0.0191,-0.02,-0.0192,-0.0257,-0.0256,-0.0255,-0.0198,-0.0191,-0.0186,0,0,0,0,0,0,0.001,-0.001,-0.0019,-0.0019,-0.0035,-0.0062,-0.0064,-0.0081,-0.01,-0.0103,-0.0139,-0.0147,-0.0162,-0.0186,-0.0186,-0.0204,-0.0227,-0.0228,-0.0181,-0.0176,-0.0171,-0.0158,-0.0216,0,0,0,0,0,0.0016,0.0015,-0.0007,-0.0006,-0.0012,-0.0038,-0.0047,-0.0061,-0.0082,-0.0091,-0.0118,-0.0145,-0.0165,-0.0176,-0.0201,-0.021,-0.0238,-0.0211,-0.0206,-0.0202,-0.0197,-0.0227,-0.0224,-0.0252,-0.0252,-0.0252,0,0,0.0024,0.0014,0.0013,-0.0002,-0.0016,-0.0016,-0.0044,-0.0053,-0.0051,-0.0096,-0.0103,-0.0132,-0.0165,-0.0174,-0.0183,-0.0192,-0.0209,-0.0201,-0.0197,-0.0194,-0.0226,-0.0223,-0.0221,-0.0252,-0.0252,-0.0252,0,0,0.0044,0.0032,0.0039,0.0031,0.0015,0.0001,0.0001,-0.0024,-0.0034,-0.0046,-0.0075,-0.0094,-0.013,-0.0145,-0.0159,-0.0144,-0.0186,-0.0155,-0.0118,-0.0147,-0.0145,-0.0143,-0.0176,-0.0177,-0.0149,-0.0149,-0.0149,0,0.0055,0.006,0.0039,0.0045,0.0045,0.0013,0.0024,0.001,-0.0018,-0.0021,-0.0041,-0.0085,-0.0114,-0.0119,-0.0113,-0.0132,-0.0159,-0.0134,-0.014,-0.0139,-0.0138,-0.0172,-0.0175,-0.0146,-0.0147,-0.0147,-0.0147,0,0.0079,0.0084,0.0088,0.0088,0.0086,0.0088,0.0071,0.0065,0.0047,0.003,0.0014,-0.0025,-0.005,-0.0062,-0.0084,-0.0089,-0.0114,-0.0132,-0.0151,-0.0132,-0.0169,-0.0173,-0.0142,-0.0143,-0.0144,-0.0145,0,0,0.01,0.0105,0.0106,0.0118,0.0109,0.0112,0.0119,0.0115,0.0123,0.0088,0.0091,0.0055,0.0027,0.001,-0.0022,-0.0045,-0.0067,-0.0082,-0.0085,-0.0109,-0.0136,-0.0144,-0.015,-0.0088,-0.0088,-0.0088,-0.0164,0,0.0125,0.015,0.0145,0.0173,0.0186,0.0171,0.0184,0.0177,0.016,0.0153,0.0112,0.0098,0.0057,0.0046,0.0016,-0.0047,-0.0075,-0.0045,-0.0156,-0.0159,-0.0164,-0.0153,-0.0089,-0.0167,-0.0168,-0.0169,-0.0169,0,0.015,0.0164,0.0196,0.0223,0.0228,0.0241,0.0258,0.0262,0.0245,0.0231,0.0206,0.0169,0.0133,0.0093,-0.0002,0.0017,-0.0052,-0.0105,-0.0109,-0.014,-0.0174,-0.0192,-0.0177,-0.0176,-0.0176,-0.0175,-0.0175,0,0.0177,0.0203,0.0232,0.0239,0.026,0.0277,0.0287,0.0285,0.0302,0.0277,0.0279,0.0224,0.0197,0.0109,-0.0001,-0.0004,-0.0114,-0.0133,-0.0205,-0.0207,-0.0205,-0.0206,-0.0199,-0.0199,-0.0199,-0.0199,-0.0199,0,0.0204,0.0229,0.0248,0.0265,0.0308,0.031,0.0348,0.0348,0.0357,0.0382,0.032,0.0319,0.0199,0.0124,0.0016,-0.0106,-0.0104,-0.0196,-0.0224,-0.0178,-0.0175,-0.0209,-0.0209,-0.0202,-0.0201,-0.0201,-0.02,0,0.0225,0.0236,0.0274,0.0306,0.0322,0.035,0.0395,0.0421,0.0419,0.0448,0.0447,0.0389,0.0288,0.016,0.0013,-0.0077,-0.0198,-0.0243,-0.0184,-0.0208,-0.0278,-0.0274,-0.0327,-0.0327,-0.0328,-0.0329,-0.0329,0,0.0236,0.0257,0.0305,0.0334,0.0349,0.039,0.0426,0.0448,0.0479,0.0492,0.051,0.0435,0.0376,0.0168,0.0019,-0.0186,-0.0217,-0.0285,-0.028,-0.0267,-0.0289,-0.0284,-0.0279,-0.033,-0.033,-0.0331,-0.0331,0,0.0257,0.0272,0.0303,0.0362,0.0406,0.0458,0.0508,0.054,0.0569,0.0575,0.0572,0.0472,0.0355,0.0184,0.0022,-0.0126,-0.0242,-0.0293,-0.0292,-0.0288,-0.0273,-0.0293,-0.0287,-0.0333,-0.0333,-0.0333,-0.0333,0,0.027,0.0293,0.0334,0.0386,0.0448,0.0508,0.0532,0.0574,0.0608,0.0628,0.0624,0.0502,0.0436,0.0214,0.0065,-0.0082,-0.0122,-0.0172,-0.0179,-0.0178,-0.0117,-0.0075,-0.0093,0,0,0,0,0,0.028,0.0306,0.0356,0.0415,0.0477,0.0515,0.0584,0.0603,0.0637,0.065,0.0645,0.0541,0.0336,0.0241,0.0095,0.0027,-0.0167,-0.0152,-0.0233,-0.0347,-0.0344,-0.0299,0,0,0,0,0,0,0.0286,0.0329,0.0353,0.0429,0.0473,0.0546,0.0592,0.0617,0.0622,0.0637,0.0532,0.0495,0.0289,0.0423,0.009,0.0044,-0.003,-0.0246,-0.0249,-0.0349,-0.0346,-0.0344,-0.0296,0,0,0,0,0]}]]